Flag for U.S.A. Weather past 2 weeks in Tyler, Texas, U.S.A.

Now
43 °F

Fog.


Feels Like: 43 °F
Forecast: 42 / 58 °F
Wind: No wind

Location: Tyler Pounds Field

Current Time: Dec 21, 2014 at 2:54:53 AM

Latest Report: Dec 21, 2014 at 1:53 AM


Visibility: 5 mi

Pressure: 30.16 "Hg

Humidity: 89%

Dew point: 40 °F

Location of TylerLocation

Historic Weather in Tyler — Graph

°F

Tyler temperature yesterday

Maximum temperature yesterday: 53 °F (at 2:53 PM)
Minimum temperature yesterday: 42 °F (at 11:53 PM)
Average temperature yesterday: 48 °F

Past Weeks' High & Low Weather Summary

 TemperatureHumidityPressure
High71 °F (Dec 13, 2:53 PM)97% (Dec 9, 4:53 AM)30.41 "Hg (Dec 9, 4:53 AM)
Low37 °F (Dec 9, 5:53 AM)33% (Dec 15, 2:53 PM)29.80 "Hg (Dec 15, 3:53 AM)
Average53 °F77%30.19 "Hg
* Reported Dec 6 5:53 AM — Dec 21 12:53 AM, Tyler, Weather by CustomWeather, © 2014

Note: Actual official high and low records may vary slightly from our data, if they occured in-between our weather recording intervals... More about our weather records

Advertising

Tyler weather history for previous 24 hours

 ConditionsComfort  
Time TempWeatherWind HumidityBarometerVisibility
12:53 AM
Dec 21
42 °FOvercast.No wind89%30.18 "Hg7 mi
11:53 PM
Dec 20
42 °FFog.No wind89%30.19 "Hg6 mi
10:53 PM43 °FClear.6 mph89%30.19 "Hg8 mi
9:53 PM47 °FFog.5 mph86%30.19 "Hg6 mi
8:53 PM46 °FPassing clouds.No wind83%30.19 "Hg8 mi
7:53 PM46 °FPassing clouds.5 mph86%30.19 "Hg8 mi
6:53 PM49 °FPassing clouds.No wind77%30.19 "Hg10 mi
5:53 PM49 °FClear.3 mph77%30.17 "Hg10 mi
4:53 PM52 °FPartly sunny.3 mph69%30.17 "Hg10 mi
3:53 PM53 °FScattered clouds.No wind66%30.17 "Hg10 mi
2:53 PM53 °FOvercast.5 mph69%30.17 "Hg10 mi
1:53 PM52 °FOvercast.No wind72%30.19 "Hg10 mi
12:53 PM51 °FOvercast.3 mph77%30.20 "Hg10 mi
11:53 AM50 °FOvercast.5 mph77%30.23 "Hg10 mi
10:53 AM50 °FLow clouds.5 mph80%30.24 "Hg10 mi
9:53 AM47 °FFog.7 mph90%30.24 "Hg6 mi
8:53 AM47 °FFog.8 mph90%30.23 "Hg5 mi
7:53 AM46 °FFog.5 mph93%30.22 "Hg4 mi
6:53 AM47 °FFog.5 mph90%30.22 "Hg5 mi
5:53 AM47 °FFog.6 mph90%30.20 "Hg6 mi
4:53 AM47 °FFog.8 mph90%30.18 "Hg6 mi
3:53 AM47 °FLow clouds.7 mph90%30.19 "Hg7 mi
2:53 AM47 °FLow clouds.5 mph90%30.18 "Hg7 mi
Weather by CustomWeather, © 2014

See weather overviewHow to use our weather pages